DAH786 DTTA-DAAG

Flight info

Callsign DAH786
Flight time N/A
Altitude 34000
Route KEMIR2A KEMIR A411 BJA/N0455F400 DCT 37N004E DCT ZEM
Aircraft B736/M-SDE2E3FGHIRWXY/LB1

Departure

Time 2026-05-08 10:31
Airport Tunis Carthage International Airport (DTTA)

Arrival

Time N/A
Airport Houari Boumediene Airport (DAAG)
Time Latitude Longitude Altitude Speed Heading
2026-05-08 09:54 36.84130 10.22006 29 ft 0 kts 102°
2026-05-08 10:20 36.84133 10.21989 29 ft 4 kts 104°
2026-05-08 10:20 36.84141 10.21957 28 ft 4 kts 110°
2026-05-08 10:20 36.84152 10.21926 28 ft 4 kts 127°
2026-05-08 10:20 36.84170 10.21911 28 ft 2 kts 191°
2026-05-08 10:21 36.84176 10.21912 28 ft 1 kts 192°
2026-05-08 10:26 36.84168 10.21910 29 ft 2 kts 192°
2026-05-08 10:27 36.84134 10.21901 29 ft 8 kts 191°
2026-05-08 10:27 36.84076 10.21886 29 ft 9 kts 191°
2026-05-08 10:27 36.84014 10.21870 29 ft 9 kts 192°
2026-05-08 10:27 36.83953 10.21853 29 ft 9 kts 188°
2026-05-08 10:28 36.83907 10.21891 29 ft 9 kts 115°
2026-05-08 10:28 36.83892 10.21961 29 ft 8 kts 102°
2026-05-08 10:28 36.83881 10.22031 29 ft 8 kts 100°
2026-05-08 10:28 36.83873 10.22099 29 ft 8 kts 98°
2026-05-08 10:29 36.83868 10.22165 29 ft 8 kts 87°
2026-05-08 10:29 36.83884 10.22225 29 ft 7 kts 63°
2026-05-08 10:29 36.83904 10.22283 30 ft 7 kts 67°
2026-05-08 10:29 36.83921 10.22324 30 ft 5 kts 50°
2026-05-08 10:30 36.83928 10.22334 29 ft 0 kts 50°
2026-05-08 10:30 36.83928 10.22335 29 ft 1 kts 50°
2026-05-08 10:30 36.83954 10.22367 30 ft 11 kts 36°
2026-05-08 10:31 36.84069 10.22416 31 ft 28 kts 13°
2026-05-08 10:31 36.84418 10.22508 29 ft 76 kts 13°
2026-05-08 10:31 36.85280 10.22732 75 ft 170 kts
2026-05-08 10:31 36.86514 10.23075 1000 ft 198 kts
2026-05-08 10:32 36.87952 10.23456 1542 ft 218 kts 10°
2026-05-08 10:32 36.89455 10.23867 2211 ft 229 kts 10°
2026-05-08 10:32 36.91073 10.24312 2853 ft 247 kts 10°
2026-05-08 10:32 36.92740 10.24772 3484 ft 252 kts 10°
2026-05-08 10:33 36.94467 10.25213 4156 ft 254 kts
2026-05-08 10:33 36.96179 10.24853 4778 ft 251 kts 334°
2026-05-08 10:33 36.97516 10.23477 5425 ft 252 kts 305°
2026-05-08 10:33 36.98194 10.21440 6094 ft 254 kts 277°
2026-05-08 10:34 36.98027 10.19251 6745 ft 257 kts 250°
2026-05-08 10:34 36.97090 10.17367 7376 ft 262 kts 229°
2026-05-08 10:34 36.95813 10.15735 8030 ft 264 kts 226°
2026-05-08 10:34 36.94506 10.14126 8675 ft 263 kts 227°
2026-05-08 10:35 36.93211 10.12511 9338 ft 262 kts 228°
2026-05-08 10:35 36.91922 10.10904 9992 ft 261 kts 228°
2026-05-08 10:35 36.90740 10.09195 10496 ft 266 kts 240°
2026-05-08 10:35 36.89936 10.06977 10731 ft 295 kts 253°
2026-05-08 10:36 36.89351 10.04379 10953 ft 325 kts 256°
2026-05-08 10:36 36.88769 10.01555 11397 ft 343 kts 256°
2026-05-08 10:36 36.88171 9.98642 12200 ft 348 kts 256°
2026-05-08 10:36 36.87558 9.95701 13120 ft 350 kts 256°
2026-05-08 10:37 36.86933 9.92753 13951 ft 353 kts 255°
2026-05-08 10:37 36.86297 9.89783 14679 ft 356 kts 255°
2026-05-08 10:37 36.85652 9.86787 15385 ft 359 kts 255°
2026-05-08 10:37 36.84997 9.83759 16078 ft 363 kts 255°
2026-05-08 10:38 36.84440 9.80718 16755 ft 366 kts 263°
2026-05-08 10:38 36.84333 9.77532 17444 ft 369 kts 268°
2026-05-08 10:38 36.84305 9.74314 18123 ft 372 kts 268°
2026-05-08 10:38 36.84280 9.71066 18682 ft 376 kts 268°
2026-05-08 10:39 36.84246 9.67786 19277 ft 378 kts 268°
2026-05-08 10:39 36.84202 9.64500 19895 ft 380 kts 267°
2026-05-08 10:39 36.84149 9.61189 20495 ft 382 kts 267°
2026-05-08 10:39 36.84092 9.57859 21083 ft 385 kts 267°
2026-05-08 10:40 36.84032 9.54509 21640 ft 388 kts 267°
2026-05-08 10:40 36.83970 9.51131 22202 ft 390 kts 267°
2026-05-08 10:40 36.83907 9.47740 22746 ft 392 kts 267°
2026-05-08 10:40 36.83842 9.44323 23231 ft 395 kts 267°
2026-05-08 10:41 36.83775 9.40881 23713 ft 398 kts 267°
2026-05-08 10:41 36.83702 9.37427 24161 ft 399 kts 266°
2026-05-08 10:41 36.83626 9.33958 24614 ft 400 kts 266°
2026-05-08 10:41 36.83547 9.30473 25070 ft 402 kts 266°
2026-05-08 10:42 36.83469 9.26973 25528 ft 404 kts 266°
2026-05-08 10:42 36.83389 9.23464 25951 ft 406 kts 266°
2026-05-08 10:42 36.83308 9.19935 26355 ft 408 kts 266°
2026-05-08 10:42 36.83227 9.16389 26749 ft 409 kts 266°
2026-05-08 10:43 36.83143 9.12834 27127 ft 411 kts 265°
2026-05-08 10:43 36.83056 9.09307 27498 ft 412 kts 265°
2026-05-08 10:43 36.82951 9.05726 27874 ft 414 kts 265°
2026-05-08 10:43 36.82841 9.02128 28238 ft 415 kts 265°
2026-05-08 10:44 36.82731 8.98526 28737 ft 413 kts 265°
2026-05-08 10:44 36.82718 8.94957 29334 ft 411 kts 267°
2026-05-08 10:44 36.82794 8.91407 29969 ft 407 kts 268°
2026-05-08 10:44 36.82888 8.87894 30545 ft 404 kts 268°
2026-05-08 10:45 36.82980 8.84400 31079 ft 401 kts 268°
2026-05-08 10:45 36.83038 8.82054 31459 ft 399 kts 268°
2026-05-08 10:45 36.83117 8.78655 31962 ft 397 kts 267°
2026-05-08 10:45 36.83191 8.75218 32481 ft 394 kts 267°
2026-05-08 10:46 36.83263 8.71812 32990 ft 391 kts 267°
2026-05-08 10:46 36.83332 8.68429 33449 ft 390 kts 267°
2026-05-08 10:46 36.83400 8.65042 33809 ft 390 kts 267°
2026-05-08 10:46 36.83436 8.61659 34040 ft 391 kts 266°
2026-05-08 10:47 36.83439 8.58250 34022 ft 393 kts 266°
2026-05-08 10:47 36.83422 8.51454 34032 ft 390 kts 266°
2026-05-08 10:48 36.83409 8.44701 34034 ft 388 kts 265°
2026-05-08 10:48 36.83399 8.37961 34031 ft 388 kts 265°
2026-05-08 10:49 36.83388 8.31234 34037 ft 388 kts 265°
2026-05-08 10:49 36.83375 8.24503 34040 ft 388 kts 265°
2026-05-08 10:50 36.83357 8.17757 34033 ft 389 kts 265°
2026-05-08 10:50 36.83336 8.11000 34031 ft 389 kts 265°
2026-05-08 10:51 36.83311 8.04248 34022 ft 389 kts 265°
2026-05-08 10:51 36.83283 7.97533 34025 ft 389 kts 265°
2026-05-08 10:52 36.83251 7.90770 34022 ft 389 kts 265°
2026-05-08 10:52 36.83215 7.84016 34025 ft 389 kts 264°
2026-05-08 10:53 36.83166 7.77263 34022 ft 389 kts 264°
2026-05-08 10:53 36.83095 7.70516 34023 ft 388 kts 264°
2026-05-08 10:54 36.83021 7.63776 34022 ft 388 kts 264°
2026-05-08 10:54 36.82944 7.57046 34027 ft 388 kts 263°
2026-05-08 10:55 36.82865 7.50312 34031 ft 388 kts 263°
2026-05-08 10:55 36.82782 7.43586 34036 ft 388 kts 263°
2026-05-08 10:56 36.82696 7.36911 34031 ft 387 kts 263°
2026-05-08 10:56 36.82607 7.30204 34035 ft 386 kts 263°
2026-05-08 10:57 36.82513 7.23503 34025 ft 386 kts 263°
2026-05-08 10:57 36.82366 7.13488 34031 ft 384 kts 263°
2026-05-08 10:58 36.82263 7.06822 34030 ft 384 kts 262°
2026-05-08 10:58 36.82157 7.00145 34039 ft 385 kts 262°
2026-05-08 10:59 36.82046 6.93467 34021 ft 385 kts 262°
2026-05-08 10:59 36.81934 6.86793 34032 ft 384 kts 262°
2026-05-08 11:00 36.81816 6.80135 34032 ft 384 kts 262°